Precipitable_Water
0.92 0.91 0.91 0.90 0.88 0.87 0.88 0.85 0.77 0.78 0.80 0.85 0.87 0.82 0.74 0.72 0.74 0.78 0.82 0.82 0.84 0.83 0.83 0.82 0.82 0.83 0.84 0.87 0.87 0.90 0.88 0.84 0.84 0.82 0.78 0.73 0.70 0.68 0.66 0.64 0.60 0.59 0.57 0.54 0.56 0.55 0.53 0.49 0.48 0.49 0.51 0.50 0.50 0.50 0.50 0.51 0.50 0.48 0.47 0.44 0.40 0.38 0.34 0.30 0.28 0.28 0.34 0.39 0.34 0.33 0.35 0.36 0.34 0.37 0.36 0.36 0.36 0.37 0.37 0.38 0.40 0.41 0.42 0.43 0.44
0.92 0.93 0.94 0.92 0.91 0.92 0.91 0.88 0.79 0.77 0.79 0.83 0.87 0.88 0.84 0.82 0.82 0.81 0.81 0.89 0.89 0.88 0.90 0.92 0.94 0.95 0.96 0.98 1.00 0.99 1.00 0.99 0.98 0.96 0.92 0.91 0.88 0.85 0.79 0.72 0.67 0.64 0.63 0.61 0.59 0.59 0.57 0.53 0.52 0.53 0.53 0.52 0.53 0.52 0.52 0.51 0.51 0.50 0.49 0.48 0.45 0.44 0.44 0.38 0.36 0.33 0.30 0.35 0.32 0.36 0.36 0.39 0.35 0.40 0.38 0.39 0.41 0.43 0.43 0.43 0.45 0.45 0.44 0.44 0.45
0.95 0.97 0.97 0.95 0.94 0.96 0.96 0.90 0.81 0.77 0.79 0.83 0.88 0.92 0.92 0.92 0.90 0.87 0.85 0.91 0.95 0.94 0.94 0.94 0.95 0.98 1.00 1.02 1.03 1.02 1.01 1.03 1.05 1.03 1.01 1.00 0.97 0.94 0.91 0.88 0.83 0.77 0.72 0.68 0.67 0.67 0.63 0.60 0.59 0.60 0.61 0.58 0.57 0.56 0.56 0.54 0.54 0.52 0.51 0.51 0.47 0.45 0.44 0.44 0.42 0.39 0.38 0.39 0.43 0.42 0.43 0.44 0.43 0.43 0.45 0.45 0.47 0.47 0.46 0.46 0.47 0.48 0.48 0.47 0.45
0.93 0.95 0.96 0.96 0.97 0.97 0.99 0.94 0.84 0.78 0.79 0.85 0.90 0.93 0.95 0.97 0.95 0.92 0.92 0.96 0.98 0.99 1.01 0.99 0.98 0.99 1.01 1.03 1.05 1.05 1.04 1.04 1.04 1.03 1.03 1.01 0.98 0.97 0.97 0.97 0.95 0.94 0.90 0.87 0.83 0.77 0.72 0.71 0.71 0.73 0.73 0.69 0.68 0.66 0.64 0.61 0.58 0.56 0.55 0.54 0.52 0.51 0.53 0.53 0.52 0.49 0.47 0.45 0.48 0.49 0.49 0.46 0.46 0.48 0.47 0.47 0.46 0.46 0.47 0.48 0.49 0.48 0.48 0.47 0.46
0.92 0.93 0.94 0.93 0.95 0.98 0.96 0.94 0.85 0.79 0.81 0.86 0.91 0.95 0.97 0.98 0.95 0.92 0.93 0.96 1.04 1.08 1.08 1.08 1.04 1.02 1.02 1.02 1.02 1.02 1.03 1.04 1.03 1.03 1.04 1.04 1.03 1.02 1.00 0.99 0.98 0.98 0.97 0.97 0.95 0.91 0.85 0.82 0.83 0.85 0.85 0.82 0.79 0.77 0.75 0.70 0.66 0.63 0.60 0.60 0.61 0.64 0.65 0.66 0.65 0.63 0.59 0.56 0.56 0.58 0.59 0.56 0.55 0.54 0.53 0.50 0.50 0.51 0.52 0.52 0.52 0.52 0.52 0.51 0.50
0.90 0.90 0.91 0.91 0.92 0.93 0.94 0.92 0.86 0.78 0.80 0.87 0.91 0.92 0.93 0.92 0.90 0.91 0.94 0.96 0.99 1.00 1.00 1.05 1.02 1.03 1.04 1.06 1.06 1.06 1.06 1.06 1.06 1.04 1.04 1.04 1.03 1.04 1.02 1.01 0.99 0.99 0.99 0.98 0.98 0.97 0.93 0.91 0.90 0.90 0.90 0.87 0.86 0.84 0.82 0.79 0.76 0.73 0.71 0.70 0.69 0.70 0.70 0.70 0.70 0.67 0.66 0.65 0.65 0.63 0.64 0.62 0.61 0.60 0.60 0.59 0.56 0.55 0.56 0.57 0.58 0.57 0.55 0.53 0.52
0.89 0.89 0.91 0.91 0.90 0.90 0.89 0.87 0.85 0.82 0.83 0.88 0.91 0.91 0.93 0.94 0.94 0.93 0.93 0.94 0.97 0.97 0.97 0.98 1.05 1.04 1.05 1.06 1.03 1.02 1.02 1.02 1.01 1.01 1.00 1.00 0.97 0.96 0.99 1.00 1.00 0.99 0.99 0.99 0.98 0.97 0.97 0.96 0.94 0.93 0.91 0.90 0.87 0.85 0.84 0.83 0.81 0.78 0.76 0.73 0.73 0.71 0.69 0.69 0.68 0.66 0.64 0.62 0.61 0.62 0.61 0.63 0.63 0.60 0.63 0.64 0.61 0.59 0.55 0.54 0.54 0.56 0.56 0.53 0.50
0.88 0.88 0.90 0.91 0.90 0.89 0.89 0.88 0.86 0.87 0.87 0.90 0.92 0.93 0.96 0.98 0.97 0.98 0.98 0.96 0.98 1.00 0.99 1.01 1.03 1.03 1.02 1.03 1.05 1.05 1.03 1.01 1.00 1.00 1.01 1.01 1.00 0.99 1.00 1.00 1.00 0.98 0.94 0.93 0.92 0.92 0.93 0.95 0.95 0.94 0.92 0.91 0.89 0.86 0.84 0.81 0.81 0.78 0.77 0.75 0.74 0.72 0.70 0.70 0.69 0.67 0.67 0.66 0.64 0.61 0.61 0.60 0.60 0.62 0.63 0.63 0.60 0.60 0.60 0.56 0.51 0.50 0.50 0.51 0.49
0.85 0.87 0.89 0.89 0.89 0.90 0.91 0.90 0.90 0.91 0.90 0.91 0.93 0.92 0.91 0.92 0.93 0.96 0.99 1.00 0.99 0.99 1.01 1.02 1.00 0.99 0.99 1.01 1.02 1.02 0.99 0.97 0.97 0.99 0.99 1.00 1.01 0.98 0.98 1.00 0.99 0.98 0.93 0.91 0.91 0.91 0.93 0.97 0.98 0.98 0.97 0.96 0.95 0.93 0.90 0.88 0.83 0.79 0.78 0.76 0.72 0.71 0.70 0.69 0.68 0.67 0.66 0.65 0.62 0.62 0.59 0.56 0.54 0.51 0.48 0.48 0.50 0.51 0.55 0.55 0.50 0.50 0.49 0.46 0.45
0.82 0.84 0.85 0.87 0.90 0.91 0.90 0.89 0.88 0.89 0.88 0.88 0.90 0.91 0.92 0.93 0.94 0.93 0.92 0.94 0.96 0.96 0.96 0.98 0.98 0.97 0.94 0.94 0.94 0.94 0.94 0.96 0.97 0.98 0.98 0.98 0.98 0.98 0.98 0.98 0.97 0.95 0.92 0.90 0.89 0.91 0.95 0.98 1.00 1.01 1.01 1.01 0.98 0.95 0.93 0.91 0.90 0.87 0.84 0.79 0.76 0.73 0.70 0.68 0.67 0.66 0.65 0.62 0.60 0.59 0.56 0.54 0.52 0.51 0.47 0.45 0.45 0.47 0.46 0.47 0.45 0.46 0.44 0.41 0.41
0.81 0.81 0.81 0.85 0.88 0.89 0.89 0.89 0.87 0.85 0.86 0.86 0.88 0.90 0.91 0.91 0.89 0.87 0.86 0.87 0.89 0.90 0.90 0.90 0.90 0.90 0.88 0.87 0.87 0.87 0.87 0.88 0.87 0.85 0.84 0.86 0.90 0.92 0.93 0.93 0.95 0.96 0.96 0.94 0.94 0.95 0.94 0.97 0.98 1.00 1.00 0.98 0.98 0.96 0.94 0.92 0.90 0.88 0.86 0.82 0.78 0.73 0.68 0.66 0.65 0.65 0.63 0.60 0.59 0.57 0.55 0.53 0.53 0.52 0.48 0.46 0.44 0.42 0.40 0.41 0.40 0.40 0.37 0.33 0.29
0.65 0.64 0.66 0.72 0.78 0.81 0.82 0.81 0.80 0.79 0.79 0.79 0.80 0.81 0.83 0.82 0.76 0.74 0.74 0.73 0.75 0.76 0.76 0.77 0.80 0.81 0.81 0.81 0.79 0.78 0.77 0.77 0.76 0.75 0.76 0.77 0.77 0.77 0.78 0.79 0.82 0.84 0.87 0.89 0.91 0.91 0.92 0.94 0.95 0.96 0.96 0.96 0.95 0.94 0.94 0.92 0.89 0.86 0.82 0.79 0.76 0.74 0.73 0.70 0.67 0.67 0.66 0.62 0.60 0.59 0.57 0.55 0.55 0.54 0.51 0.47 0.43 0.40 0.40 0.39 0.39 0.37 0.35 0.32 0.30
0.57 0.57 0.57 0.56 0.56 0.57 0.59 0.59 0.60 0.62 0.65 0.66 0.68 0.69 0.68 0.64 0.60 0.59 0.59 0.62 0.64 0.63 0.63 0.64 0.64 0.66 0.65 0.63 0.62 0.64 0.65 0.66 0.64 0.64 0.65 0.68 0.72 0.74 0.74 0.75 0.74 0.74 0.74 0.75 0.76 0.77 0.78 0.79 0.81 0.86 0.89 0.90 0.90 0.89 0.88 0.87 0.84 0.80 0.78 0.76 0.75 0.73 0.71 0.70 0.72 0.71 0.69 0.65 0.61 0.58 0.57 0.56 0.54 0.53 0.54 0.51 0.47 0.39 0.37 0.36 0.36 0.36 0.34 0.31 0.30
0.50 0.50 0.49 0.49 0.50 0.51 0.52 0.52 0.52 0.52 0.53 0.54 0.55 0.55 0.54 0.53 0.54 0.56 0.57 0.58 0.57 0.57 0.58 0.57 0.57 0.57 0.57 0.57 0.56 0.56 0.55 0.56 0.54 0.54 0.54 0.55 0.57 0.62 0.66 0.68 0.69 0.69 0.69 0.70 0.69 0.68 0.68 0.67 0.67 0.68 0.71 0.73 0.75 0.76 0.76 0.76 0.75 0.74 0.73 0.72 0.72 0.71 0.69 0.69 0.69 0.68 0.66 0.63 0.60 0.56 0.57 0.57 0.53 0.53 0.54 0.51 0.44 0.38 0.35 0.33 0.34 0.33 0.31 0.29 0.30
0.47 0.48 0.48 0.49 0.50 0.50 0.51 0.51 0.50 0.51 0.51 0.52 0.52 0.52 0.51 0.51 0.51 0.51 0.51 0.51 0.51 0.50 0.50 0.48 0.47 0.47 0.46 0.45 0.43 0.42 0.43 0.44 0.44 0.44 0.44 0.46 0.48 0.50 0.52 0.56 0.58 0.60 0.62 0.63 0.63 0.63 0.63 0.62 0.61 0.60 0.62 0.63 0.66 0.66 0.65 0.64 0.64 0.65 0.65 0.65 0.65 0.65 0.66 0.65 0.63 0.63 0.63 0.62 0.60 0.57 0.56 0.56 0.54 0.53 0.51 0.49 0.44 0.40 0.37 0.35 0.34 0.32 0.31 0.32 0.31
0.50 0.50 0.50 0.51 0.52 0.53 0.52 0.51 0.52 0.53 0.53 0.53 0.53 0.52 0.51 0.51 0.49 0.50 0.50 0.49 0.48 0.47 0.47 0.46 0.45 0.45 0.45 0.45 0.44 0.42 0.44 0.45 0.46 0.46 0.46 0.46 0.45 0.46 0.49 0.51 0.52 0.54 0.54 0.57 0.58 0.59 0.59 0.57 0.56 0.56 0.57 0.58 0.60 0.60 0.60 0.60 0.59 0.58 0.59 0.61 0.63 0.64 0.64 0.66 0.67 0.66 0.64 0.62 0.59 0.57 0.55 0.56 0.55 0.50 0.47 0.43 0.40 0.38 0.37 0.37 0.35 0.32 0.29 0.27 0.25
0.57 0.56 0.55 0.55 0.55 0.55 0.54 0.53 0.52 0.53 0.53 0.53 0.53 0.53 0.53 0.53 0.53 0.54 0.51 0.51 0.49 0.48 0.47 0.47 0.48 0.47 0.46 0.46 0.45 0.44 0.44 0.46 0.47 0.48 0.49 0.48 0.48 0.48 0.49 0.50 0.51 0.52 0.54 0.56 0.58 0.59 0.59 0.58 0.56 0.55 0.56 0.56 0.57 0.56 0.56 0.56 0.55 0.55 0.55 0.55 0.57 0.58 0.59 0.63 0.64 0.62 0.59 0.57 0.56 0.55 0.54 0.51 0.47 0.45 0.42 0.40 0.39 0.38 0.36 0.32 0.30 0.31 0.28 0.25 0.25
0.60 0.59 0.58 0.58 0.58 0.58 0.56 0.53 0.52 0.52 0.52 0.52 0.53 0.54 0.55 0.55 0.55 0.57 0.54 0.52 0.51 0.51 0.51 0.50 0.50 0.50 0.48 0.48 0.48 0.46 0.46 0.47 0.48 0.48 0.49 0.49 0.49 0.48 0.49 0.49 0.50 0.51 0.53 0.55 0.57 0.58 0.59 0.58 0.57 0.55 0.53 0.54 0.55 0.55 0.55 0.55 0.53 0.54 0.54 0.54 0.55 0.56 0.58 0.59 0.58 0.56 0.55 0.53 0.51 0.49 0.47 0.46 0.45 0.43 0.41 0.40 0.39 0.38 0.34 0.28 0.30 0.30 0.26 0.25 0.23
0.59 0.61 0.61 0.60 0.60 0.59 0.57 0.56 0.54 0.52 0.51 0.50 0.51 0.50 0.51 0.52 0.53 0.54 0.53 0.52 0.52 0.54 0.54 0.52 0.52 0.52 0.52 0.52 0.52 0.50 0.50 0.50 0.51 0.50 0.50 0.50 0.49 0.49 0.49 0.49 0.48 0.49 0.51 0.52 0.54 0.55 0.55 0.55 0.53 0.52 0.52 0.52 0.52 0.53 0.54 0.55 0.54 0.54 0.54 0.55 0.54 0.53 0.53 0.53 0.51 0.49 0.48 0.46 0.46 0.46 0.45 0.45 0.44 0.41 0.39 0.37 0.36 0.36 0.35 0.32 0.31 0.29 0.25 0.25 0.26
0.57 0.59 0.61 0.62 0.61 0.60 0.59 0.57 0.56 0.54 0.52 0.53 0.54 0.53 0.54 0.53 0.53 0.52 0.52 0.51 0.50 0.51 0.50 0.50 0.50 0.51 0.52 0.51 0.51 0.52 0.50 0.50 0.51 0.51 0.51 0.50 0.49 0.48 0.47 0.45 0.45 0.47 0.49 0.51 0.51 0.52 0.52 0.52 0.52 0.52 0.51 0.51 0.51 0.52 0.53 0.54 0.54 0.55 0.54 0.52 0.50 0.48 0.50 0.49 0.48 0.47 0.45 0.44 0.44 0.45 0.44 0.44 0.41 0.38 0.36 0.34 0.33 0.33 0.33 0.32 0.31 0.30 0.28 0.27 0.27
0.54 0.56 0.57 0.56 0.57 0.58 0.58 0.58 0.58 0.58 0.58 0.56 0.56 0.56 0.55 0.53 0.53 0.52 0.50 0.50 0.49 0.49 0.49 0.49 0.49 0.49 0.50 0.51 0.51 0.52 0.52 0.51 0.51 0.51 0.51 0.50 0.50 0.49 0.46 0.45 0.46 0.46 0.47 0.47 0.48 0.48 0.48 0.49 0.50 0.51 0.51 0.51 0.51 0.52 0.52 0.53 0.53 0.53 0.51 0.49 0.48 0.48 0.49 0.46 0.45 0.46 0.45 0.44 0.43 0.42 0.40 0.38 0.36 0.33 0.32 0.31 0.31 0.32 0.33 0.33 0.33 0.33 0.31 0.29 0.27
0.52 0.53 0.54 0.55 0.54 0.54 0.54 0.56 0.56 0.56 0.57 0.56 0.54 0.52 0.53 0.52 0.51 0.50 0.49 0.48 0.46 0.46 0.47 0.47 0.48 0.49 0.50 0.51 0.52 0.53 0.54 0.53 0.51 0.50 0.51 0.52 0.52 0.52 0.50 0.48 0.48 0.48 0.47 0.47 0.47 0.46 0.46 0.47 0.48 0.50 0.50 0.51 0.52 0.53 0.53 0.53 0.52 0.51 0.51 0.51 0.50 0.49 0.48 0.48 0.48 0.46 0.43 0.41 0.38 0.36 0.34 0.32 0.30 0.30 0.30 0.31 0.31 0.32 0.33 0.33 0.34 0.34 0.34 0.33 0.31
0.46 0.47 0.49 0.52 0.52 0.52 0.52 0.52 0.52 0.52 0.52 0.52 0.51 0.50 0.52 0.51 0.51 0.50 0.49 0.47 0.46 0.46 0.46 0.46 0.45 0.45 0.46 0.48 0.49 0.50 0.51 0.51 0.50 0.49 0.49 0.52 0.54 0.53 0.52 0.50 0.49 0.47 0.46 0.45 0.46 0.46 0.48 0.49 0.49 0.50 0.50 0.51 0.51 0.51 0.51 0.51 0.52 0.51 0.51 0.50 0.48 0.47 0.45 0.43 0.42 0.40 0.38 0.36 0.33 0.30 0.29 0.29 0.28 0.28 0.29 0.29 0.31 0.32 0.33 0.33 0.33 0.33 0.33 0.33 0.34
0.44 0.44 0.45 0.47 0.49 0.50 0.50 0.51 0.52 0.51 0.50 0.50 0.50 0.49 0.49 0.49 0.49 0.48 0.46 0.44 0.44 0.43 0.44 0.45 0.45 0.44 0.44 0.44 0.45 0.47 0.48 0.48 0.48 0.47 0.47 0.49 0.52 0.53 0.52 0.51 0.49 0.47 0.46 0.45 0.46 0.47 0.47 0.47 0.47 0.47 0.46 0.46 0.46 0.46 0.46 0.46 0.46 0.46 0.45 0.45 0.44 0.43 0.42 0.39 0.36 0.33 0.31 0.29 0.28 0.27 0.27 0.28 0.28 0.28 0.28 0.30 0.31 0.32 0.32 0.33 0.33 0.33 0.33 0.33 0.33
0.44 0.43 0.43 0.44 0.45 0.47 0.48 0.48 0.49 0.50 0.51 0.51 0.49 0.49 0.49 0.50 0.48 0.48 0.46 0.44 0.44 0.42 0.43 0.44 0.44 0.44 0.44 0.44 0.45 0.45 0.46 0.46 0.46 0.46 0.45 0.48 0.50 0.52 0.51 0.50 0.48 0.47 0.45 0.46 0.46 0.46 0.46 0.46 0.45 0.45 0.45 0.45 0.44 0.43 0.43 0.42 0.42 0.41 0.40 0.40 0.38 0.35 0.33 0.31 0.30 0.29 0.27 0.26 0.25 0.25 0.26 0.27 0.28 0.29 0.31 0.32 0.33 0.33 0.32 0.32 0.33 0.33 0.34 0.34 0.34
0.46 0.45 0.44 0.44 0.45 0.45 0.45 0.47 0.48 0.49 0.50 0.51 0.50 0.49 0.48 0.47 0.46 0.46 0.45 0.45 0.44 0.43 0.42 0.42 0.42 0.42 0.41 0.41 0.40 0.41 0.42 0.42 0.42 0.42 0.43 0.45 0.48 0.49 0.49 0.48 0.47 0.47 0.47 0.47 0.47 0.47 0.47 0.46 0.45 0.45 0.44 0.44 0.43 0.42 0.40 0.39 0.39 0.37 0.35 0.33 0.31 0.30 0.30 0.29 0.27 0.26 0.24 0.25 0.25 0.26 0.28 0.30 0.31 0.32 0.33 0.33 0.31 0.30 0.30 0.30 0.30 0.31 0.32 0.32 0.31
0.44 0.46 0.46 0.46 0.47 0.48 0.47 0.47 0.48 0.49 0.49 0.49 0.49 0.48 0.48 0.46 0.45 0.44 0.44 0.43 0.43 0.41 0.40 0.39 0.39 0.39 0.38 0.39 0.39 0.39 0.38 0.38 0.39 0.41 0.42 0.44 0.47 0.49 0.50 0.49 0.48 0.48 0.48 0.49 0.49 0.50 0.49 0.48 0.46 0.45 0.43 0.42 0.40 0.38 0.36 0.34 0.32 0.31 0.31 0.31 0.30 0.29 0.28 0.27 0.26 0.26 0.26 0.27 0.28 0.29 0.30 0.31 0.32 0.31 0.30 0.30 0.30 0.31 0.33 0.32 0.32 0.32 0.33 0.33 0.32
0.40 0.41 0.43 0.44 0.46 0.47 0.47 0.48 0.48 0.48 0.48 0.48 0.46 0.46 0.46 0.46 0.44 0.43 0.43 0.42 0.40 0.39 0.38 0.37 0.37 0.37 0.36 0.37 0.37 0.37 0.36 0.36 0.37 0.38 0.41 0.44 0.45 0.47 0.48 0.47 0.46 0.46 0.46 0.45 0.45 0.46 0.44 0.43 0.41 0.39 0.37 0.34 0.32 0.31 0.30 0.30 0.30 0.30 0.29 0.29 0.28 0.29 0.29 0.30 0.31 0.31 0.31 0.31 0.30 0.30 0.30 0.30 0.30 0.31 0.32 0.32 0.33 0.34 0.36 0.35 0.35 0.35 0.36 0.36 0.34
0.37 0.38 0.39 0.41 0.42 0.44 0.45 0.46 0.47 0.46 0.46 0.46 0.46 0.45 0.44 0.44 0.44 0.44 0.45 0.45 0.43 0.40 0.38 0.38 0.38 0.39 0.39 0.38 0.37 0.36 0.36 0.35 0.37 0.40 0.43 0.45 0.46 0.46 0.47 0.46 0.45 0.43 0.41 0.42 0.44 0.44 0.42 0.38 0.35 0.33 0.31 0.30 0.29 0.30 0.30 0.29 0.28 0.28 0.28 0.28 0.29 0.31 0.32 0.32 0.30 0.30 0.31 0.30 0.29 0.30 0.30 0.31 0.32 0.34 0.35 0.35 0.36 0.38 0.40 0.40 0.41 0.40 0.39 0.39 0.37
0.35 0.36 0.37 0.39 0.40 0.42 0.43 0.43 0.44 0.44 0.44 0.44 0.44 0.45 0.47 0.47 0.46 0.43 0.42 0.45 0.45 0.45 0.43 0.40 0.41 0.42 0.40 0.41 0.42 0.39 0.37 0.38 0.40 0.40 0.42 0.44 0.44 0.44 0.43 0.42 0.42 0.41 0.43 0.45 0.45 0.40 0.36 0.32 0.32 0.31 0.31 0.31 0.29 0.28 0.27 0.27 0.27 0.27 0.29 0.31 0.31 0.31 0.32 0.32 0.31 0.31 0.32 0.32 0.32 0.33 0.33 0.34 0.35 0.37 0.38 0.39 0.41 0.43 0.44 0.44 0.43 0.44 0.42 0.42 0.41
0.34 0.35 0.36 0.37 0.39 0.41 0.42 0.42 0.43 0.43 0.43 0.43 0.43 0.42 0.42 0.44 0.45 0.44 0.43 0.43 0.42 0.42 0.42 0.43 0.44 0.44 0.43 0.40 0.43 0.44 0.43 0.41 0.41 0.40 0.41 0.42 0.41 0.40 0.40 0.40 0.39 0.41 0.43 0.43 0.40 0.37 0.33 0.32 0.33 0.32 0.32 0.31 0.30 0.28 0.28 0.27 0.28 0.29 0.29 0.30 0.31 0.31 0.31 0.31 0.32 0.34 0.34 0.34 0.35 0.37 0.38 0.38 0.39 0.41 0.42 0.44 0.44 0.46 0.47 0.48 0.48 0.48 0.47 0.47 0.46
0.33 0.35 0.37 0.38 0.40 0.42 0.42 0.43 0.43 0.43 0.43 0.43 0.42 0.41 0.39 0.37 0.38 0.41 0.40 0.39 0.39 0.39 0.40 0.41 0.42 0.43 0.44 0.44 0.43 0.42 0.42 0.42 0.43 0.42 0.41 0.41 0.41 0.42 0.43 0.41 0.41 0.40 0.40 0.41 0.36 0.34 0.34 0.35 0.33 0.32 0.32 0.30 0.29 0.28 0.28 0.28 0.29 0.29 0.29 0.29 0.29 0.31 0.31 0.32 0.35 0.36 0.36 0.37 0.38 0.40 0.41 0.42 0.44 0.46 0.47 0.48 0.49 0.49 0.50 0.50 0.50 0.50 0.51 0.51 0.51
0.37 0.38 0.40 0.42 0.43 0.44 0.43 0.43 0.43 0.42 0.41 0.41 0.40 0.40 0.38 0.36 0.34 0.33 0.37 0.38 0.38 0.37 0.37 0.38 0.39 0.40 0.42 0.43 0.44 0.43 0.43 0.44 0.43 0.44 0.45 0.46 0.45 0.45 0.44 0.43 0.42 0.41 0.41 0.38 0.33 0.32 0.35 0.34 0.33 0.33 0.31 0.28 0.27 0.28 0.29 0.29 0.29 0.29 0.29 0.29 0.29 0.31 0.33 0.36 0.38 0.38 0.39 0.41 0.42 0.43 0.45 0.48 0.49 0.50 0.51 0.51 0.51 0.50 0.51 0.51 0.52 0.52 0.52 0.51 0.50
0.42 0.41 0.41 0.42 0.42 0.42 0.42 0.42 0.42 0.41 0.42 0.41 0.40 0.39 0.38 0.37 0.36 0.34 0.33 0.33 0.35 0.37 0.39 0.40 0.41 0.42 0.42 0.43 0.43 0.43 0.44 0.44 0.43 0.44 0.46 0.46 0.46 0.44 0.43 0.43 0.42 0.39 0.36 0.33 0.33 0.33 0.34 0.34 0.34 0.31 0.28 0.28 0.28 0.29 0.29 0.29 0.30 0.29 0.30 0.30 0.31 0.33 0.35 0.38 0.39 0.40 0.41 0.43 0.45 0.48 0.50 0.51 0.52 0.51 0.52 0.52 0.53 0.53 0.52 0.52 0.52 0.50 0.49 0.49 0.49
0.45 0.45 0.44 0.43 0.41 0.41 0.41 0.41 0.41 0.40 0.40 0.39 0.38 0.38 0.37 0.37 0.36 0.35 0.34 0.33 0.33 0.33 0.34 0.37 0.41 0.43 0.44 0.44 0.44 0.45 0.45 0.45 0.44 0.44 0.44 0.45 0.44 0.43 0.42 0.39 0.36 0.35 0.35 0.34 0.35 0.36 0.35 0.34 0.31 0.28 0.28 0.28 0.29 0.30 0.29 0.30 0.29 0.29 0.29 0.30 0.32 0.33 0.36 0.38 0.40 0.42 0.44 0.46 0.49 0.51 0.52 0.52 0.53 0.53 0.53 0.52 0.52 0.52 0.51 0.51 0.51 0.50 0.49 0.49 0.49
0.45 0.45 0.44 0.43 0.42 0.40 0.40 0.39 0.39 0.38 0.36 0.36 0.36 0.35 0.36 0.36 0.36 0.36 0.37 0.37 0.36 0.35 0.35 0.37 0.40 0.43 0.45 0.47 0.47 0.46 0.45 0.44 0.43 0.42 0.42 0.42 0.42 0.40 0.35 0.35 0.35 0.33 0.32 0.36 0.37 0.38 0.36 0.32 0.28 0.28 0.30 0.30 0.30 0.30 0.30 0.29 0.29 0.30 0.30 0.30 0.31 0.33 0.35 0.37 0.40 0.43 0.47 0.50 0.51 0.52 0.53 0.53 0.53 0.53 0.53 0.52 0.51 0.50 0.49 0.49 0.50 0.50 0.50 0.50 0.50
0.45 0.43 0.42 0.41 0.41 0.41 0.42 0.42 0.41 0.39 0.38 0.37 0.36 0.36 0.38 0.39 0.39 0.39 0.38 0.36 0.35 0.36 0.37 0.39 0.40 0.43 0.45 0.46 0.47 0.46 0.45 0.45 0.44 0.43 0.44 0.44 0.40 0.36 0.35 0.35 0.34 0.33 0.35 0.38 0.38 0.36 0.30 0.29 0.29 0.30 0.30 0.30 0.31 0.30 0.30 0.30 0.30 0.30 0.30 0.31 0.32 0.34 0.36 0.37 0.40 0.45 0.49 0.51 0.52 0.53 0.53 0.53 0.53 0.53 0.52 0.50 0.51 0.51 0.51 0.51 0.51 0.50 0.50 0.50 0.49
0.43 0.41 0.41 0.41 0.41 0.41 0.40 0.40 0.41 0.41 0.39 0.38 0.39 0.39 0.39 0.39 0.39 0.38 0.36 0.36 0.37 0.38 0.39 0.41 0.44 0.44 0.42 0.43 0.46 0.44 0.44 0.44 0.43 0.43 0.41 0.38 0.38 0.38 0.37 0.36 0.36 0.36 0.37 0.38 0.35 0.30 0.28 0.29 0.30 0.30 0.31 0.31 0.30 0.30 0.30 0.29 0.29 0.29 0.29 0.30 0.32 0.34 0.36 0.37 0.40 0.46 0.51 0.52 0.52 0.52 0.53 0.53 0.53 0.53 0.52 0.50 0.50 0.50 0.51 0.51 0.51 0.50 0.51 0.51 0.49
0.43 0.43 0.42 0.42 0.41 0.40 0.39 0.39 0.39 0.39 0.39 0.39 0.39 0.39 0.38 0.38 0.39 0.38 0.39 0.41 0.42 0.43 0.44 0.44 0.44 0.43 0.43 0.44 0.44 0.46 0.43 0.40 0.38 0.37 0.38 0.39 0.40 0.39 0.39 0.40 0.39 0.37 0.37 0.33 0.29 0.29 0.29 0.30 0.31 0.31 0.31 0.31 0.30 0.30 0.29 0.29 0.28 0.27 0.27 0.28 0.30 0.33 0.34 0.36 0.39 0.45 0.50 0.51 0.52 0.52 0.52 0.52 0.53 0.53 0.52 0.52 0.51 0.51 0.51 0.52 0.52 0.52 0.51 0.50 0.50
0.42 0.42 0.42 0.41 0.40 0.40 0.40 0.40 0.39 0.38 0.38 0.38 0.38 0.39 0.40 0.41 0.41 0.43 0.45 0.45 0.44 0.44 0.43 0.43 0.42 0.43 0.45 0.44 0.43 0.44 0.41 0.41 0.40 0.39 0.39 0.39 0.39 0.42 0.42 0.41 0.38 0.35 0.30 0.28 0.29 0.29 0.30 0.31 0.31 0.31 0.30 0.30 0.30 0.29 0.29 0.28 0.27 0.26 0.26 0.26 0.28 0.30 0.33 0.36 0.38 0.42 0.47 0.51 0.51 0.51 0.51 0.52 0.53 0.53 0.53 0.53 0.52 0.52 0.52 0.52 0.52 0.52 0.52 0.51 0.51
0.42 0.42 0.42 0.43 0.44 0.45 0.46 0.45 0.43 0.42 0.42 0.42 0.42 0.42 0.42 0.44 0.45 0.47 0.47 0.46 0.44 0.43 0.43 0.43 0.45 0.47 0.46 0.45 0.46 0.46 0.44 0.42 0.41 0.40 0.40 0.41 0.43 0.43 0.43 0.40 0.34 0.28 0.28 0.29 0.29 0.30 0.31 0.31 0.31 0.31 0.30 0.30 0.30 0.29 0.28 0.27 0.26 0.25 0.24 0.24 0.26 0.29 0.32 0.36 0.38 0.40 0.45 0.49 0.50 0.50 0.51 0.52 0.52 0.52 0.52 0.53 0.54 0.54 0.54 0.54 0.54 0.53 0.53 0.53 0.53
0.44 0.45 0.47 0.48 0.49 0.49 0.48 0.48 0.48 0.47 0.47 0.46 0.46 0.46 0.47 0.48 0.49 0.48 0.48 0.47 0.47 0.46 0.46 0.46 0.45 0.45 0.44 0.44 0.43 0.43 0.42 0.42 0.42 0.42 0.43 0.44 0.44 0.43 0.40 0.35 0.31 0.28 0.28 0.29 0.30 0.31 0.32 0.32 0.31 0.31 0.30 0.30 0.30 0.29 0.28 0.26 0.25 0.24 0.23 0.22 0.24 0.27 0.31 0.34 0.36 0.38 0.41 0.45 0.48 0.50 0.50 0.51 0.52 0.52 0.53 0.54 0.54 0.54 0.54 0.54 0.54 0.54 0.54 0.54 0.54
0.49 0.50 0.50 0.50 0.50 0.50 0.49 0.49 0.49 0.48 0.47 0.47 0.48 0.48 0.49 0.48 0.48 0.48 0.48 0.47 0.47 0.46 0.44 0.43 0.44 0.44 0.43 0.43 0.42 0.42 0.42 0.42 0.42 0.43 0.43 0.42 0.41 0.38 0.36 0.34 0.30 0.29 0.29 0.31 0.32 0.33 0.32 0.32 0.31 0.31 0.31 0.31 0.31 0.29 0.28 0.26 0.25 0.23 0.22 0.21 0.23 0.26 0.29 0.32 0.35 0.36 0.38 0.41 0.45 0.48 0.50 0.51 0.51 0.52 0.52 0.53 0.54 0.54 0.54 0.54 0.54 0.54 0.54 0.54 0.54
0.52 0.52 0.52 0.52 0.52 0.51 0.51 0.51 0.50 0.49 0.48 0.48 0.47 0.47 0.48 0.48 0.48 0.47 0.46 0.45 0.45 0.44 0.44 0.44 0.44 0.43 0.43 0.43 0.42 0.41 0.41 0.42 0.40 0.39 0.39 0.38 0.37 0.36 0.36 0.34 0.31 0.29 0.30 0.31 0.32 0.33 0.33 0.32 0.32 0.33 0.33 0.32 0.32 0.30 0.29 0.27 0.25 0.23 0.22 0.21 0.22 0.25 0.28 0.30 0.32 0.34 0.36 0.38 0.41 0.44 0.47 0.50 0.51 0.51 0.51 0.52 0.53 0.53 0.53 0.54 0.54 0.54 0.54 0.54 0.54
0.53 0.52 0.52 0.51 0.51 0.51 0.51 0.51 0.51 0.50 0.50 0.49 0.48 0.48 0.48 0.47 0.46 0.46 0.45 0.45 0.45 0.45 0.46 0.46 0.45 0.44 0.43 0.42 0.40 0.40 0.39 0.38 0.36 0.36 0.36 0.36 0.36 0.37 0.37 0.35 0.32 0.30 0.30 0.31 0.33 0.33 0.33 0.33 0.33 0.33 0.33 0.32 0.31 0.30 0.28 0.27 0.26 0.25 0.24 0.22 0.22 0.23 0.27 0.29 0.31 0.33 0.35 0.36 0.38 0.40 0.43 0.47 0.49 0.50 0.50 0.51 0.52 0.53 0.53 0.54 0.54 0.54 0.54 0.54 0.54
0.53 0.53 0.51 0.51 0.51 0.51 0.51 0.51 0.50 0.50 0.48 0.47 0.47 0.47 0.48 0.48 0.49 0.48 0.48 0.47 0.45 0.44 0.44 0.44 0.44 0.43 0.42 0.40 0.39 0.39 0.36 0.35 0.35 0.36 0.36 0.36 0.38 0.38 0.37 0.34 0.32 0.31 0.31 0.32 0.33 0.33 0.34 0.34 0.34 0.34 0.33 0.32 0.30 0.29 0.28 0.28 0.28 0.26 0.26 0.24 0.23 0.24 0.27 0.29 0.31 0.33 0.34 0.36 0.37 0.38 0.40 0.43 0.46 0.48 0.49 0.50 0.52 0.53 0.53 0.54 0.55 0.54 0.54 0.54 0.54
0.53 0.52 0.51 0.51 0.51 0.51 0.50 0.49 0.49 0.49 0.48 0.47 0.46 0.45 0.45 0.47 0.48 0.48 0.47 0.45 0.43 0.42 0.41 0.41 0.40 0.39 0.38 0.37 0.36 0.35 0.35 0.34 0.34 0.35 0.36 0.36 0.38 0.38 0.36 0.35 0.33 0.31 0.31 0.32 0.33 0.34 0.34 0.34 0.34 0.34 0.34 0.32 0.30 0.29 0.29 0.29 0.29 0.28 0.27 0.26 0.25 0.25 0.27 0.29 0.31 0.32 0.33 0.36 0.37 0.37 0.38 0.40 0.42 0.45 0.47 0.49 0.50 0.51 0.52 0.53 0.54 0.54 0.54 0.54 0.54
0.52 0.51 0.51 0.51 0.50 0.50 0.49 0.48 0.48 0.47 0.47 0.45 0.46 0.46 0.45 0.44 0.44 0.42 0.40 0.39 0.38 0.37 0.36 0.35 0.35 0.35 0.35 0.35 0.35 0.35 0.35 0.35 0.36 0.36 0.36 0.36 0.37 0.37 0.36 0.34 0.32 0.30 0.31 0.32 0.33 0.33 0.34 0.34 0.34 0.34 0.33 0.31 0.29 0.28 0.28 0.29 0.29 0.28 0.27 0.26 0.26 0.26 0.27 0.29 0.30 0.31 0.33 0.35 0.36 0.37 0.37 0.38 0.40 0.42 0.44 0.46 0.48 0.49 0.50 0.51 0.53 0.54 0.54 0.54 0.55
0.51 0.51 0.50 0.49 0.48 0.47 0.47 0.46 0.46 0.45 0.45 0.45 0.44 0.44 0.43 0.42 0.40 0.38 0.36 0.36 0.35 0.34 0.33 0.33 0.33 0.33 0.33 0.34 0.34 0.34 0.35 0.35 0.35 0.35 0.36 0.36 0.36 0.37 0.36 0.34 0.32 0.30 0.30 0.31 0.32 0.33 0.34 0.34 0.34 0.33 0.32 0.30 0.29 0.28 0.28 0.28 0.29 0.29 0.28 0.27 0.26 0.26 0.27 0.29 0.31 0.31 0.32 0.33 0.35 0.37 0.37 0.38 0.39 0.40 0.42 0.43 0.45 0.48 0.50 0.51 0.52 0.53 0.54 0.54 0.55
0.51 0.50 0.49 0.48 0.47 0.46 0.46 0.45 0.44 0.44 0.45 0.45 0.44 0.42 0.42 0.41 0.40 0.39 0.36 0.34 0.33 0.32 0.32 0.32 0.32 0.33 0.32 0.32 0.33 0.33 0.34 0.34 0.34 0.34 0.34 0.34 0.35 0.36 0.35 0.33 0.32 0.31 0.31 0.32 0.33 0.33 0.34 0.34 0.34 0.33 0.31 0.30 0.29 0.28 0.28 0.28 0.28 0.28 0.28 0.28 0.27 0.26 0.26 0.28 0.30 0.31 0.31 0.32 0.34 0.35 0.36 0.37 0.38 0.39 0.40 0.42 0.43 0.45 0.47 0.49 0.51 0.52 0.53 0.53 0.54
0.50 0.49 0.48 0.47 0.46 0.45 0.45 0.44 0.43 0.43 0.43 0.43 0.42 0.41 0.41 0.41 0.41 0.40 0.37 0.34 0.32 0.32 0.32 0.31 0.31 0.32 0.32 0.32 0.32 0.32 0.32 0.32 0.32 0.33 0.33 0.33 0.34 0.35 0.35 0.33 0.31 0.31 0.31 0.32 0.33 0.33 0.33 0.33 0.33 0.32 0.30 0.29 0.29 0.28 0.28 0.28 0.28 0.28 0.28 0.28 0.28 0.27 0.26 0.26 0.28 0.30 0.31 0.32 0.33 0.35 0.35 0.36 0.36 0.37 0.38 0.40 0.41 0.42 0.44 0.47 0.49 0.51 0.52 0.52 0.53
Wind_Speed
12 12 12 12 14 15 15 15 14 14 14 13 13 13 13 14 14 13 14 13 12 11 11 10 9 9 8 8 8 8 8 8 8 8 8 9 9 9 9 8 8 8 8 8 8 8 7 7 7 7 8 8 8 7 7 7 8 8 7 7 7 7 7 7 8 9 9 10 10 10 11 11 11 11 11 11 11 11 12 12 12 13 13 14 14
12 12 12 12 12 14 15 15 15 14 14 14 14 14 14 14 14 14 14 15 14 13 13 12 12 11 10 10 10 9 9 9 10 10 10 10 10 10 10 10 10 9 9 9 9 9 9 9 9 9 9 9 9 9 9 9 9 9 9 9 9 9 9 9 9 10 10 11 11 11 12 12 12 12 13 13 13 13 13 13 14 14 14 15 15
13 13 12 12 12 13 14 14 15 15 15 15 14 14 15 15 15 15 15 15 15 15 15 15 15 14 13 13 12 12 12 12 12 12 12 12 12 12 12 11 11 11 11 11 11 11 11 11 11 11 11 11 11 11 11 11 11 10 11 11 11 11 11 11 11 11 12 12 12 13 13 13 14 14 14 14 14 14 15 15 15 15 16 16 17
13 13 13 12 13 13 14 14 14 15 15 15 15 15 15 16 16 16 16 16 16 16 17 17 17 16 16 15 15 14 14 14 14 14 14 14 15 15 14 14 14 13 13 13 12 12 12 12 13 13 13 13 13 13 13 12 12 12 12 12 12 12 12 13 13 13 14 14 14 15 15 15 15 16 16 16 16 16 17 17 17 17 18 18 19
12 13 13 13 14 14 14 14 15 15 15 15 15 16 15 15 16 17 17 17 17 17 18 18 18 18 18 17 17 17 17 16 16 16 16 16 16 16 16 16 16 16 15 15 15 15 15 15 15 14 14 14 14 14 14 14 14 14 13 13 14 14 14 15 15 15 16 16 16 17 17 17 17 18 18 18 19 19 19 19 19 20 20 20 21
13 13 13 13 14 14 14 14 15 15 16 16 16 17 16 15 16 16 17 18 18 18 19 19 19 19 19 19 19 19 19 18 17 17 17 17 16 16 17 17 18 18 18 17 17 17 17 17 16 16 16 16 16 16 16 16 16 16 16 16 16 16 16 16 17 17 17 17 17 18 18 19 19 19 20 20 20 21 21 21 21 22 22 22 23
14 14 14 14 15 15 14 14 14 15 16 17 17 17 16 16 17 17 18 19 20 20 20 20 20 20 19 19 20 20 19 18 18 18 18 17 17 17 17 18 18 18 19 19 19 18 18 18 19 19 19 19 18 18 18 18 18 18 18 18 18 18 18 18 18 18 18 18 19 19 20 20 20 21 21 22 22 22 23 24 24 24 24 24 25
15 16 16 16 16 16 16 15 14 15 16 17 17 17 17 17 18 18 18 19 20 20 19 19 19 19 19 19 19 19 19 19 19 19 19 19 19 19 19 19 19 19 19 20 20 21 21 21 21 21 22 22 22 21 21 20 20 20 20 20 20 20 20 20 20 19 19 20 20 21 21 22 22 23 24 24 24 24 25 25 26 27 27 27 27
16 17 17 17 18 18 18 17 17 17 17 17 18 18 18 18 19 19 19 19 20 20 19 19 20 20 21 20 20 20 20 20 20 20 21 21 21 21 21 21 21 20 20 21 22 22 23 23 23 24 24 24 25 25 24 23 23 23 22 22 22 22 22 22 22 22 22 22 22 23 23 24 25 25 26 26 26 27 27 28 28 29 29 30 29
17 17 18 18 19 19 19 19 19 19 19 19 19 19 19 19 19 18 18 17 18 18 19 19 19 20 20 20 20 20 19 19 20 21 22 22 23 23 23 23 23 22 22 23 23 24 24 25 25 25 26 26 27 27 27 27 27 26 26 25 25 25 25 25 25 25 25 25 25 26 26 26 27 27 28 28 29 30 30 30 31 31 32 32 31
17 17 18 19 19 19 19 19 19 20 20 19 19 19 19 19 18 18 17 17 17 17 18 18 18 18 18 19 19 19 18 19 20 21 22 22 23 23 24 24 24 24 24 25 25 25 25 25 26 26 27 28 28 29 29 29 29 29 28 28 28 28 27 27 27 27 28 28 28 28 28 29 29 29 30 30 31 32 32 32 33 33 33 33 33
18 18 19 19 19 19 19 19 19 20 19 19 19 19 18 18 18 17 17 17 17 18 18 18 18 18 18 19 19 19 20 20 21 21 22 22 23 23 24 24 24 24 25 25 25 25 25 26 26 27 27 28 29 30 30 31 31 30 30 30 29 29 29 29 30 30 30 30 30 30 30 30 31 32 32 32 33 33 34 34 35 35 35 36 36
20 20 20 20 20 20 20 20 20 20 19 19 19 19 19 19 18 18 18 18 18 19 19 19 19 20 20 20 21 21 22 22 22 23 23 23 24 24 24 25 25 25 25 25 26 26 26 27 27 27 28 29 29 30 30 31 31 31 31 31 31 31 31 31 32 32 32 32 33 33 33 33 33 34 34 34 35 35 36 36 37 37 37 38 38
21 21 21 21 21 21 21 21 21 21 21 21 21 20 20 20 20 20 20 20 20 20 21 21 21 21 22 22 23 23 24 24 24 25 25 25 25 25 25 26 26 26 26 26 26 27 27 28 28 28 29 29 30 30 31 31 31 32 32 33 33 33 33 33 33 34 34 34 35 35 35 35 36 36 36 36 37 37 38 38 39 39 40 40 40
22 23 23 23 22 22 22 22 22 22 22 22 22 22 22 22 22 22 22 22 22 22 22 23 23 23 23 24 24 24 25 25 25 26 26 26 26 26 27 27 27 27 27 27 27 27 28 28 28 29 29 30 30 30 30 30 31 32 32 33 33 33 34 34 34 34 35 35 36 36 36 37 37 37 38 38 39 39 40 40 40 41 41 41 41
22 23 23 23 23 23 23 23 23 23 23 23 23 23 23 23 23 23 23 23 23 23 23 23 23 24 24 24 24 25 25 26 26 26 26 26 26 27 27 27 28 28 28 28 28 28 28 28 28 28 29 29 30 30 30 30 31 32 32 33 33 34 34 34 34 34 35 35 36 36 37 37 37 38 39 40 40 41 41 41 41 42 42 42 42
21 21 21 22 22 22 23 23 23 23 23 23 23 23 23 24 24 24 24 24 24 24 24 24 24 25 25 25 25 25 26 26 26 27 27 26 26 27 27 27 28 28 28 28 28 28 28 28 28 28 28 28 28 28 29 30 31 32 32 33 33 34 34 35 35 35 35 35 36 36 37 37 38 39 40 41 41 42 42 42 42 42 43 43 44
22 21 21 21 21 22 22 22 23 23 23 23 23 23 23 24 24 24 24 24 24 24 25 25 25 26 26 26 26 26 26 27 27 27 27 27 27 27 27 28 28 28 28 28 28 28 28 27 27 27 27 27 27 27 28 29 30 31 32 32 33 34 34 35 35 35 35 36 36 37 38 38 39 40 41 41 42 42 42 43 43 43 44 44 45
26 25 25 24 24 24 24 23 23 23 24 24 24 24 24 25 25 26 26 25 25 25 25 26 26 26 26 27 27 27 27 27 28 28 28 28 28 28 28 29 28 29 29 28 28 28 28 27 27 27 27 27 27 27 28 29 30 31 32 32 33 33 34 35 35 36 36 37 37 38 39 39 40 41 41 42 42 42 43 43 44 44 45 45 45
29 29 29 28 28 27 26 26 26 26 26 26 26 26 26 26 27 27 27 27 27 27 27 27 27 27 28 28 28 28 28 28 28 28 28 28 28 28 28 29 29 29 29 28 28 28 28 28 27 27 27 28 28 29 29 30 31 32 32 32 33 33 34 35 36 36 37 37 38 39 39 40 41 41 41 42 42 43 43 43 44 44 44 45 45
32 32 32 31 31 31 30 30 29 29 28 28 28 28 28 28 28 28 28 29 29 29 29 29 29 29 29 29 29 29 29 29 29 29 29 28 28 28 28 28 28 28 28 28 28 28 28 28 28 28 28 28 29 30 30 31 31 32 32 33 33 34 35 36 36 37 37 37 38 39 39 40 40 41 41 42 42 43 43 43 44 44 44 45 45
32 33 33 33 33 33 33 33 32 32 31 30 30 30 30 30 30 30 30 30 30 30 31 30 30 30 30 30 30 30 30 30 30 30 30 29 29 29 29 28 28 28 28 28 28 28 28 28 29 29 29 29 29 30 30 31 31 32 32 33 33 34 35 36 36 37 37 38 38 39 39 40 40 41 41 41 42 42 42 43 43 44 44 45 45
33 33 34 34 34 34 34 34 33 33 33 32 32 31 31 31 31 32 32 32 32 31 31 31 31 31 31 31 31 31 31 31 31 31 31 30 30 29 29 29 29 29 29 29 29 29 28 29 29 29 29 30 30 30 30 31 31 32 32 32 33 34 35 35 36 37 37 38 38 39 39 39 39 40 40 40 40 41 41 42 43 43 44 44 45
35 35 35 35 35 35 35 34 34 34 34 33 33 33 32 32 32 33 33 33 32 32 32 32 32 32 33 33 33 33 33 32 32 32 31 31 30 30 29 29 29 29 29 29 29 29 29 29 29 29 29 29 29 29 30 30 31 31 31 32 33 34 34 35 36 36 36 37 37 37 37 38 38 38 39 39 40 40 41 42 42 42 43 43 44
36 36 36 36 36 36 36 36 36 35 35 35 34 34 34 34 34 34 34 34 33 33 33 33 33 34 34 34 34 34 34 33 33 32 31 31 30 30 29 29 29 29 29 29 29 29 28 28 28 28 28 28 28 29 29 29 30 30 31 31 32 33 33 34 34 34 35 35 35 36 36 36 37 38 38 39 40 40 40 41 41 42 42 43 43
38 38 38 38 38 38 38 38 38 37 37 37 36 36 36 35 35 35 35 35 35 35 35 35 35 35 35 35 35 35 34 34 33 33 32 31 30 30 29 28 28 28 28 28 27 27 27 27 27 27 27 27 28 28 28 28 29 29 30 30 31 31 31 32 32 32 33 33 34 34 35 36 36 37 38 38 39 39 39 40 40 40 41 41 41
40 40 40 40 40 40 39 39 39 39 38 38 38 37 37 36 36 36 36 36 36 36 36 36 36 36 36 36 35 35 34 33 32 32 31 31 30 29 29 28 28 27 27 27 27 27 26 26 26 26 26 26 27 27 27 27 28 28 28 29 29 29 29 30 30 30 31 32 33 33 34 35 35 36 36 37 38 38 39 39 40 40 39 40 40
42 41 41 41 41 41 40 40 40 40 39 39 39 39 38 38 38 38 38 38 38 38 37 37 37 37 36 35 35 34 33 32 32 31 30 30 30 29 29 28 27 27 27 27 26 26 25 25 25 25 25 25 25 25 25 25 26 26 26 26 26 26 27 27 28 29 29 30 31 32 33 34 35 35 36 37 38 38 38 38 38 38 38 37 37
43 42 42 41 41 41 41 41 41 40 40 40 40 40 40 40 40 40 39 39 39 38 38 38 38 37 36 35 34 33 32 32 32 31 30 29 29 29 28 27 27 26 26 25 24 24 23 23 23 23 23 23 23 23 23 23 23 23 23 23 24 24 25 25 26 27 28 29 30 31 32 34 35 36 36 37 37 37 36 36 36 36 35 35 35
43 42 42 41 41 41 40 41 41 41 41 41 41 41 41 40 40 40 40 40 39 39 39 39 38 37 36 35 34 33 32 32 31 31 30 29 28 27 27 26 25 25 24 23 22 22 22 21 21 21 21 21 21 21 21 21 21 21 21 21 22 22 23 24 25 26 27 29 30 31 32 34 34 35 35 35 35 34 33 33 32 32 31 31 30
41 41 41 40 40 39 40 40 40 40 40 40 41 41 41 40 40 40 40 40 40 40 40 39 38 37 36 35 34 33 32 31 31 30 29 28 27 26 25 24 24 23 23 22 21 21 20 20 19 19 19 19 19 19 19 19 19 19 20 20 21 21 22 23 25 26 27 29 30 31 32 33 33 33 33 32 31 30 28 28 27 26 26 25 25
39 39 39 38 38 38 38 39 39 39 39 39 39 40 40 40 40 39 39 39 39 39 39 39 38 37 36 35 34 33 32 31 30 29 28 26 25 24 23 23 22 22 21 20 20 19 19 18 18 18 18 17 17 18 18 18 18 18 19 19 20 21 22 23 24 25 27 28 29 30 31 31 31 30 28 27 26 25 24 23 23 22 22 21 22
37 37 37 37 37 37 38 38 38 39 39 39 39 39 39 38 38 38 37 37 36 36 36 36 36 35 35 34 33 32 31 30 29 28 26 25 23 22 22 21 21 20 19 19 19 18 18 17 17 17 16 16 16 16 16 16 16 17 17 18 19 20 21 22 23 25 26 28 29 29 29 27 26 25 23 22 21 21 20 20 20 19 20 20 20
34 34 35 35 36 36 37 37 38 38 38 38 38 38 37 37 36 36 35 34 33 32 32 32 32 32 32 31 30 29 29 28 27 26 25 24 22 21 21 20 19 18 18 18 18 17 17 16 16 15 15 15 14 14 14 14 15 15 16 17 18 19 20 21 23 25 26 27 27 26 25 23 22 21 20 19 19 18 18 19 19 19 20 20 21
30 30 31 32 33 34 35 35 36 37 37 37 37 37 36 35 34 34 33 32 31 30 29 28 28 28 28 28 27 27 26 26 25 25 24 23 22 21 20 19 18 17 17 17 16 16 15 15 14 13 13 12 12 12 12 12 13 14 15 16 17 18 19 21 23 25 26 25 24 23 21 20 20 19 18 17 18 18 18 19 19 20 20 21 22
26 26 27 28 29 30 31 33 34 35 35 36 36 35 34 33 33 32 31 30 29 28 26 26 25 25 25 25 25 25 24 24 23 22 21 21 20 20 19 18 17 17 16 15 15 14 13 12 12 11 10 10 10 10 10 10 11 12 13 15 16 18 19 21 23 24 24 22 21 20 19 19 18 18 18 18 18 19 19 20 20 21 21 22 23
23 23 23 24 25 27 28 29 30 31 32 32 33 32 32 31 31 29 28 28 27 25 24 24 23 23 22 22 22 22 21 20 19 19 19 19 19 18 17 17 16 15 14 13 13 12 11 10 10 9 8 8 8 8 8 9 10 11 13 14 16 18 20 22 23 23 21 20 18 18 18 18 18 18 18 18 19 19 20 20 20 21 21 22 22
20 20 21 22 23 24 25 26 26 27 28 29 29 29 29 29 28 27 26 25 24 23 22 22 21 21 20 20 19 18 17 17 17 17 17 17 16 15 15 14 13 13 13 12 11 10 9 8 8 7 7 7 7 7 8 8 9 11 13 15 16 17 19 21 22 21 19 18 17 17 17 17 18 18 18 18 18 19 19 20 20 20 20 20 20
17 18 19 20 21 21 22 22 23 23 24 25 25 26 26 25 24 24 23 22 21 21 20 20 19 18 17 17 16 16 15 15 16 15 15 14 14 13 13 12 11 11 11 11 10 9 8 7 7 6 6 6 6 6 7 7 9 11 13 15 16 18 19 21 22 21 19 17 16 16 17 17 18 18 18 18 18 18 19 19 19 19 18 18 18
15 16 17 17 17 18 18 19 19 20 20 20 21 21 22 22 21 20 19 18 18 18 17 16 15 15 15 15 15 15 14 14 14 14 14 13 13 12 11 11 10 10 10 9 9 8 8 7 6 5 5 5 5 5 6 7 9 11 13 15 16 18 19 21 21 21 19 17 17 17 17 17 17 17 17 17 17 18 18 19 18 18 18 18 18
12 12 12 12 12 13 13 13 14 14 14 15 15 16 16 17 16 16 16 15 15 15 15 15 15 15 15 14 14 14 14 14 14 13 13 13 12 11 10 10 10 9 9 8 8 8 8 7 6 5 4 4 4 5 5 7 9 11 13 14 16 17 19 20 21 21 19 18 17 17 17 17 17 17 17 17 17 18 18 18 18 18 18 18 18
7 7 6 6 6 6 7 7 6 6 6 7 9 10 11 12 13 14 14 14 14 14 14 15 16 16 15 14 14 14 13 13 12 12 12 11 11 10 10 9 9 9 9 9 9 8 8 6 5 4 4 4 4 4 6 7 9 11 13 14 16 17 18 20 21 21 21 19 18 18 18 18 17 17 17 16 17 17 18 18 18 17 17 18 18
3 2 0 1 2 2 2 1 3 4 5 7 8 9 11 12 13 13 14 14 14 14 14 15 15 15 14 13 13 12 12 11 11 11 11 11 10 10 9 9 9 8 9 9 9 8 7 6 5 4 3 4 4 5 6 8 9 11 12 14 15 17 18 19 21 21 21 21 20 19 18 18 17 17 17 16 16 17 18 18 18 17 17 17 18
5 4 4 4 5 6 6 7 9 10 11 11 12 12 12 13 13 13 13 13 13 14 14 14 14 14 13 12 12 11 11 11 11 11 11 11 10 10 9 9 9 9 9 8 8 8 7 6 4 4 3 4 4 5 7 8 9 11 12 13 15 16 17 19 20 21 22 22 21 20 19 18 17 17 17 17 17 17 18 18 18 17 17 17 17
6 5 4 5 5 6 7 9 10 11 11 11 11 11 11 11 11 11 11 11 12 13 13 14 14 13 13 12 11 11 11 12 12 11 11 11 10 10 10 10 9 9 8 8 8 7 6 5 4 4 4 4 5 6 7 8 9 11 12 13 14 16 17 18 20 21 22 22 22 22 21 19 18 17 17 17 17 17 17 17 17 17 17 17 17
6 5 5 5 6 7 8 9 9 10 10 10 10 10 10 10 10 10 10 11 11 12 12 12 12 12 12 12 12 12 12 12 12 12 11 10 10 10 10 9 8 8 7 7 6 6 4 3 3 4 4 4 5 6 7 8 9 11 12 13 14 16 17 18 19 20 21 22 22 22 22 21 19 18 18 17 17 16 17 17 17 16 16 16 16
6 6 6 6 7 9 9 9 9 9 9 8 8 9 9 9 9 9 10 10 10 10 11 11 11 12 12 12 12 13 13 12 12 11 11 10 10 10 9 8 8 7 7 6 5 4 4 3 3 4 4 5 5 6 7 8 10 11 12 13 14 15 17 18 19 20 20 21 22 23 22 22 21 20 19 18 17 16 16 16 16 16 16 16 15
7 7 7 8 8 9 9 9 9 8 8 7 8 8 8 8 8 8 9 9 9 10 10 10 11 12 12 13 13 13 12 12 11 11 10 9 9 9 8 7 7 7 6 5 5 4 3 4 4 4 4 5 5 7 8 9 10 11 12 13 14 15 17 18 18 19 20 21 21 22 22 22 22 21 20 19 18 16 16 15 15 15 15 15 14
7 7 7 8 8 8 7 7 7 7 7 7 7 7 7 7 7 8 8 8 8 9 10 10 11 12 12 12 12 12 12 11 11 9 9 8 8 8 7 7 7 6 6 5 5 4 4 4 5 5 5 5 6 7 8 9 10 11 13 14 15 16 17 17 18 19 19 20 21 21 22 22 22 22 21 20 19 17 16 15 15 14 14 14 13
8 8 7 7 7 7 6 6 6 6 6 6 6 6 6 7 7 8 8 8 8 9 9 10 11 11 12 12 12 11 11 10 9 8 8 7 7 7 7 7 6 6 5 5 5 5 5 5 5 5 6 6 7 7 8 9 10 12 13 14 16 17 17 17 18 18 19 19 20 21 21 21 22 22 22 21 20 19 17 15 14 14 13 13 12
8 8 8 7 7 6 6 6 6 5 5 5 5 5 6 6 7 7 8 8 9 9 9 10 11 11 11 11 11 10 10 9 8 7 7 6 6 7 7 6 6 6 6 5 6 6 6 6 6 7 7 7 8 8 9 10 11 12 13 15 16 17 17 17 17 18 19 19 19 20 20 21 21 22 22 21 21 20 18 17 15 14 12 12 12
Wind_Direction
247 250 252 250 246 244 246 247 246 246 246 244 243 243 243 243 243 244 245 246 249 252 255 255 255 258 262 267 271 275 277 278 279 279 278 278 276 275 274 275 275 275 276 277 277 276 275 274 274 273 273 274 275 275 275 274 273 272 272 270 269 268 267 264 262 265 270 273 274 277 279 279 280 281 280 279 282 284 283 283 283 283 283 282 282
250 251 253 252 247 244 245 246 245 245 246 246 247 245 244 244 243 244 245 246 247 251 254 255 255 258 261 264 268 270 272 275 277 277 277 276 275 275 273 272 272 272 273 274 275 275 274 272 271 271 271 271 272 272 272 272 272 272 272 272 271 272 272 270 267 269 272 274 276 278 280 280 281 283 282 281 282 283 283 283 283 283 283 284 283
256 255 254 252 249 246 246 246 244 243 245 246 246 245 244 244 244 245 246 248 248 250 254 255 255 257 259 262 266 268 270 272 273 273 272 271 273 274 273 271 271 270 270 272 273 274 274 272 271 270 270 271 271 272 271 271 270 270 270 271 272 273 274 274 273 274 275 277 278 280 281 281 281 283 283 283 283 283 283 282 283 283 284 285 284
257 255 254 253 252 248 248 248 245 244 245 245 244 243 244 246 248 248 248 250 251 252 255 255 256 257 258 260 264 268 271 272 272 271 269 270 272 272 270 270 269 269 269 271 273 274 274 273 272 271 271 271 271 271 271 271 270 270 270 271 272 272 274 276 277 277 278 279 280 281 282 282 282 283 284 284 283 283 283 283 283 283 284 285 285
254 254 254 254 254 251 250 250 247 245 246 246 245 244 246 250 252 251 250 251 253 255 256 256 256 257 258 260 263 267 271 272 272 269 267 268 270 271 270 268 268 268 269 270 271 273 273 273 272 271 271 271 271 272 272 271 272 272 272 272 271 272 273 276 278 279 278 278 278 279 281 281 282 283 283 284 283 282 283 283 282 283 284 284 284
253 253 254 255 254 253 252 252 249 247 247 247 247 247 250 254 256 254 253 254 255 257 257 257 257 258 260 262 263 267 269 271 271 269 267 268 269 270 270 268 267 267 267 267 268 269 271 271 271 270 270 270 270 272 272 272 273 274 275 274 273 273 275 277 279 279 278 278 277 278 279 280 281 282 282 283 283 283 283 283 282 283 284 284 284
254 254 255 256 255 254 253 253 251 248 248 249 248 249 252 256 257 257 257 257 257 259 260 258 257 259 262 263 265 266 267 268 269 269 267 267 268 268 269 269 268 267 268 268 267 267 268 269 269 269 268 268 269 270 271 272 272 273 273 274 274 274 275 277 278 278 279 279 280 281 281 281 281 282 282 283 282 283 284 284 283 283 284 285 285
258 257 256 255 254 252 252 253 253 252 252 250 249 252 255 257 258 260 262 261 260 260 259 256 256 259 262 265 265 265 265 266 267 267 267 267 267 267 268 270 270 269 270 271 270 268 269 269 269 268 267 267 267 267 268 269 270 270 271 272 273 273 274 275 276 276 277 279 281 282 282 282 283 283 283 283 283 283 284 284 284 285 285 285 286
259 258 256 255 254 253 253 254 254 255 255 253 253 255 258 259 260 262 264 264 262 259 258 257 259 262 264 266 267 266 266 266 265 267 268 269 269 269 269 270 270 270 270 273 273 272 271 270 269 267 267 267 266 266 267 267 268 269 270 271 272 272 273 273 274 274 276 278 280 281 282 283 284 285 285 284 283 283 283 283 284 284 285 285 285
260 259 258 256 255 254 254 255 255 256 257 256 256 258 259 259 260 262 263 263 260 259 259 261 263 264 266 267 267 267 267 267 267 268 270 270 271 270 269 269 270 270 271 273 275 275 273 271 269 267 267 266 266 266 266 267 268 269 270 271 271 272 273 274 274 275 276 278 279 280 281 283 284 285 285 284 283 283 283 283 284 284 284 284 283
261 261 260 259 257 256 256 256 257 257 257 257 257 258 259 259 259 259 260 261 261 261 261 262 263 265 266 266 267 267 268 268 269 270 270 270 271 270 269 270 270 271 272 274 275 275 274 272 271 269 268 267 267 266 266 266 266 267 268 270 271 272 273 274 275 276 277 278 278 279 280 282 283 284 284 284 283 283 283 283 284 284 285 284 283
262 261 261 260 258 258 257 257 257 257 256 255 255 256 257 257 258 259 260 261 262 262 261 262 263 264 266 267 268 269 270 272 273 273 272 271 270 270 270 270 271 272 273 274 274 274 274 274 273 272 271 269 269 268 267 266 266 267 267 268 270 272 273 273 274 276 277 278 279 279 281 282 283 283 284 283 283 283 283 283 283 284 284 284 283
262 261 261 260 259 258 258 257 257 256 256 255 255 256 257 257 258 260 261 261 262 262 261 262 264 265 267 268 269 270 271 273 274 274 274 274 272 271 272 272 273 273 274 274 274 274 275 274 274 274 273 271 270 270 269 268 267 267 267 269 270 271 272 273 274 275 276 277 278 279 280 281 282 283 283 283 283 283 283 283 283 283 283 283 283
262 262 262 261 260 260 260 259 258 258 257 257 257 257 258 259 260 261 262 262 263 263 264 265 266 267 269 270 270 271 272 273 274 274 275 275 274 273 273 273 273 274 274 274 274 275 275 275 275 275 274 273 272 271 269 268 268 268 269 270 271 272 273 274 274 275 276 277 278 279 279 280 281 282 282 282 282 283 283 283 283 283 283 282 282
263 262 262 262 262 262 262 261 260 259 258 258 258 260 261 262 263 264 265 265 265 265 266 267 268 269 271 271 272 273 273 274 275 275 275 275 275 274 274 273 273 274 274 274 275 275 276 275 275 274 274 273 272 271 269 268 268 269 270 271 272 273 274 275 275 276 277 278 279 279 280 281 282 282 282 282 282 282 282 282 283 282 282 282 282
262 262 261 261 262 262 262 261 259 258 258 258 260 261 262 263 264 265 266 266 267 268 268 269 270 272 273 273 274 274 275 275 276 276 276 276 275 275 274 274 274 274 274 274 275 276 276 276 275 274 273 273 272 270 269 268 269 270 271 272 273 274 275 276 277 278 279 280 280 281 281 282 282 283 283 282 282 282 282 282 282 282 282 281 282
263 262 261 260 260 260 259 258 257 257 257 258 260 261 262 263 264 265 266 267 268 269 270 271 272 273 273 274 274 274 275 276 276 277 277 277 277 277 276 276 275 275 275 275 275 276 276 277 276 275 274 273 272 271 269 269 270 270 271 272 273 274 275 277 278 280 281 281 282 282 283 283 283 282 283 283 283 283 282 282 282 282 282 281 281
263 261 261 260 259 259 258 257 257 256 257 257 258 260 261 263 264 264 265 266 268 269 270 271 272 272 273 274 274 275 275 276 277 277 278 278 278 278 278 278 277 276 276 276 276 276 277 277 277 276 276 275 273 272 271 270 270 270 271 272 273 274 276 277 279 280 281 282 283 283 283 282 282 283 283 283 283 283 282 283 283 282 282 281 281
261 260 260 260 260 259 258 257 256 257 257 257 258 259 261 262 263 264 265 266 267 268 270 271 272 272 273 273 274 275 276 277 278 278 278 278 278 279 279 279 278 277 276 276 276 276 276 277 277 276 276 276 275 274 273 273 272 272 273 274 275 276 277 278 279 280 281 282 283 283 283 283 283 283 283 283 283 283 282 282 282 282 282 282 282
260 259 259 260 260 259 258 257 257 258 258 258 258 259 260 262 263 264 266 267 267 268 269 270 271 272 273 273 274 275 276 277 279 279 278 278 278 279 279 279 278 277 276 276 276 276 276 276 276 276 276 276 276 276 275 275 274 274 275 275 276 277 278 279 280 281 281 282 282 282 283 283 283 284 284 284 284 283 283 283 282 282 282 282 281
262 261 260 260 259 259 259 259 259 259 258 259 260 261 262 264 265 266 267 267 268 268 269 270 270 271 272 272 273 274 275 277 278 278 278 278 278 279 280 280 278 277 276 276 276 276 276 276 276 276 276 276 276 276 276 275 275 276 276 277 278 278 279 280 280 281 281 282 282 283 283 284 284 284 284 284 284 284 284 283 282 282 282 282 281
264 263 261 260 259 260 260 260 259 258 258 260 261 263 265 267 267 267 267 268 268 269 270 270 270 271 272 272 273 274 275 276 277 278 278 277 277 278 279 279 278 277 276 275 275 275 275 276 276 276 276 276 276 276 276 277 277 277 278 278 279 279 280 280 281 282 282 283 284 284 284 285 285 285 285 285 285 285 284 284 283 283 282 282 281
264 263 262 260 259 259 259 259 258 258 259 259 261 263 264 265 266 266 267 268 269 269 269 269 270 271 272 273 274 274 275 276 277 277 277 277 277 277 278 279 278 277 276 275 275 275 275 275 276 276 276 277 277 277 278 278 278 279 279 280 280 281 281 282 282 283 284 284 285 285 285 286 286 286 286 286 286 286 285 285 284 284 283 282 281
264 264 262 261 260 259 259 258 259 259 259 260 261 262 263 264 265 265 266 267 267 268 269 269 269 270 271 271 272 273 274 274 275 276 277 276 276 276 277 278 277 277 276 275 275 275 275 276 276 276 277 277 277 278 279 279 279 280 281 281 282 282 282 283 283 284 284 285 285 286 286 286 287 287 287 287 287 287 286 286 285 284 284 283 282
264 263 263 262 261 260 259 259 259 259 259 260 261 262 263 264 264 265 265 266 267 268 269 269 269 270 270 270 270 271 272 273 274 275 275 275 275 275 276 277 276 276 275 275 275 275 275 276 276 277 277 277 278 278 279 280 281 281 282 282 282 283 283 284 284 285 286 286 286 287 287 287 288 288 288 288 288 287 287 286 286 285 285 284 283
264 263 262 262 261 260 260 260 260 260 260 260 261 262 263 264 264 265 265 266 267 268 269 269 269 269 269 270 270 270 271 271 272 273 273 273 274 274 274 275 275 274 274 274 274 275 275 276 277 278 278 278 279 280 280 281 282 283 283 283 284 284 285 285 286 287 287 288 288 288 289 289 289 289 289 289 289 289 289 288 288 287 287 286 285
264 263 262 261 261 260 259 259 259 259 259 260 261 262 263 264 264 264 265 266 267 268 269 269 269 269 269 270 269 269 270 270 271 271 271 271 271 272 272 273 273 273 273 273 273 274 275 276 277 278 279 280 281 281 281 282 283 283 284 284 285 286 286 287 288 288 289 289 289 290 290 290 290 291 291 291 291 291 291 290 290 289 288 287 286
264 263 263 262 261 259 259 259 258 258 259 260 261 261 262 263 263 263 264 266 267 268 269 269 269 269 269 269 269 269 269 269 269 269 269 269 269 270 271 272 272 272 272 272 273 274 275 276 278 279 280 280 281 281 282 283 283 284 285 286 286 287 289 290 290 291 291 291 291 292 292 293 293 293 293 293 293 293 292 291 291 290 289 288 287
263 263 262 262 261 260 260 259 259 259 260 260 261 261 262 262 263 264 265 266 267 268 268 268 268 268 268 268 268 267 267 268 268 267 266 266 267 268 269 270 269 270 270 270 272 273 275 276 278 278 279 280 281 282 283 283 284 285 286 288 289 291 292 293 293 294 294 294 294 295 295 296 296 296 296 296 295 294 294 293 292 291 290 290 289
262 262 261 261 260 260 260 260 260 260 260 261 262 262 262 263 263 264 265 266 267 267 267 267 268 268 267 267 266 266 267 267 266 264 263 264 265 266 267 266 266 267 268 269 271 273 274 276 277 277 279 280 281 282 284 285 287 288 290 292 293 294 295 296 296 297 297 297 297 298 299 299 299 299 299 298 297 296 295 294 293 292 292 291 290
261 260 260 260 259 259 259 260 260 261 261 261 262 263 263 264 264 265 265 266 266 266 266 266 266 265 265 265 265 265 266 265 263 261 261 262 263 263 263 263 263 264 265 267 269 271 272 274 275 277 278 280 282 284 286 288 290 291 293 295 296 297 298 299 300 300 300 300 301 301 302 302 302 301 301 300 299 299 297 296 295 295 294 293 292
260 259 259 259 258 258 259 259 260 261 261 262 262 263 264 265 265 266 266 266 266 266 265 265 264 263 262 262 262 263 263 262 259 258 258 258 259 259 259 260 261 262 263 265 267 269 270 272 274 276 278 281 283 285 287 289 291 294 296 297 299 300 301 302 303 304 304 304 304 304 305 305 304 304 303 303 302 301 300 300 299 299 298 297 296
259 258 258 258 258 259 259 260 260 261 261 262 262 263 263 264 265 265 266 266 266 265 264 263 261 260 259 259 259 259 259 258 256 255 254 254 254 255 256 259 260 260 261 263 264 265 267 270 272 275 279 281 283 284 287 291 294 296 297 299 301 303 305 307 308 309 309 308 308 308 307 307 307 307 306 306 305 304 303 304 304 303 302 301 300
258 258 258 259 259 259 260 260 261 261 261 262 262 262 263 263 263 264 264 264 264 263 263 262 260 257 256 256 255 254 254 254 252 251 250 249 249 250 253 256 258 259 260 261 261 261 263 267 271 274 276 278 280 285 289 293 296 298 300 303 306 308 310 312 313 314 313 313 312 311 310 310 311 312 311 310 309 309 308 307 307 306 305 304 303
258 258 259 260 260 260 261 261 261 261 262 262 262 262 262 261 261 261 261 261 260 260 260 260 258 256 254 252 251 251 250 249 248 246 245 244 245 246 249 251 254 257 257 257 257 259 261 264 267 269 271 275 281 286 291 296 300 304 308 310 311 313 315 317 318 318 317 316 315 314 314 315 316 316 316 315 314 313 311 310 309 307 307 306 305
257 259 260 261 261 262 262 263 262 262 262 261 260 260 259 258 259 259 258 258 257 256 256 256 255 253 251 250 248 247 246 244 242 240 240 240 241 244 247 249 251 252 251 252 253 255 256 259 261 263 268 275 281 287 293 301 307 312 314 316 318 319 321 323 324 322 321 320 319 319 319 319 319 318 317 315 314 312 312 311 309 308 308 307 306
258 260 262 263 264 265 265 265 264 263 262 260 258 257 255 255 255 255 254 254 253 252 251 251 249 247 247 246 244 241 238 236 233 232 234 237 240 243 245 245 244 243 244 246 248 248 249 250 253 258 266 273 280 289 298 306 312 317 320 322 324 325 327 328 328 327 325 324 323 323 323 323 322 320 318 316 314 314 313 312 311 310 310 310 309
259 261 264 266 267 268 267 267 266 265 263 260 257 254 253 252 251 250 250 249 248 247 246 245 242 240 239 237 234 229 226 225 225 228 231 235 236 236 235 234 234 235 238 239 239 238 239 241 246 254 263 272 283 293 301 308 316 322 326 329 330 331 332 334 334 333 331 329 327 326 326 326 325 324 322 320 319 319 318 317 316 316 315 315 315
259 263 266 268 270 270 269 268 267 265 262 258 254 251 248 247 245 244 244 243 242 241 238 235 233 229 224 219 216 215 217 218 220 222 224 224 224 224 223 224 228 231 230 229 227 228 230 235 242 251 261 271 282 292 300 311 321 327 331 333 335 336 338 341 341 340 336 332 330 329 327 327 328 328 326 325 325 324 324 323 322 321 321 321 321
262 266 269 270 270 270 270 269 268 264 260 255 250 245 242 239 236 235 235 233 231 228 222 217 213 209 205 204 207 211 213 212 210 210 211 211 212 215 218 220 222 221 219 218 220 223 227 232 238 246 255 266 278 290 304 317 325 330 334 337 338 340 342 345 346 345 340 335 332 331 330 329 329 329 329 329 330 330 329 328 327 326 325 325 325
264 268 270 271 272 273 274 273 270 265 258 250 242 236 231 227 223 220 217 213 209 206 202 198 197 197 198 200 203 205 205 203 201 202 204 204 206 210 213 213 212 211 211 214 217 220 223 227 230 235 244 258 275 294 311 323 330 333 337 340 341 343 345 347 350 350 346 340 335 333 332 331 330 330 331 332 332 333 334 333 332 330 329 330 331
259 264 269 275 281 283 282 275 267 256 242 228 217 210 205 201 197 194 191 189 187 186 185 187 188 191 192 193 193 193 195 195 195 197 199 200 203 205 204 203 204 207 209 211 213 214 215 215 215 221 236 258 280 301 319 328 333 336 339 342 344 346 347 350 353 353 352 347 341 337 335 333 332 331 331 331 332 334 336 336 335 334 334 335 335
213 194 128 55 47 43 51 107 130 133 137 144 150 155 158 162 165 167 168 170 171 172 175 179 182 183 185 185 184 184 187 189 190 192 193 194 196 196 195 196 200 203 204 204 206 206 204 203 206 218 243 269 290 311 324 330 334 337 340 344 346 347 350 352 354 356 355 353 348 343 339 336 334 332 331 330 330 333 337 338 337 337 336 337 337
134 113 94 86 81 79 85 96 106 114 118 121 125 131 136 141 148 153 157 162 166 170 173 176 177 178 180 181 182 184 187 188 188 186 186 187 188 190 191 193 195 196 197 198 198 198 197 198 207 228 257 280 300 317 326 330 335 338 341 344 346 348 351 353 355 357 357 356 354 350 345 340 336 334 332 330 330 332 336 339 339 338 338 338 340
118 105 99 99 96 94 97 103 108 113 116 118 123 129 133 137 145 153 159 163 166 168 170 173 175 176 178 181 183 184 184 182 180 180 181 183 185 185 186 187 189 191 194 194 193 193 195 202 217 241 264 284 303 317 325 331 335 339 341 344 346 348 350 352 355 356 357 357 357 355 352 347 342 337 333 331 331 332 334 336 339 340 340 340 341
110 103 104 105 106 109 112 113 114 117 121 123 126 130 133 135 141 150 157 160 161 163 167 170 173 176 178 178 177 175 173 173 174 176 178 178 179 180 182 184 187 190 191 190 190 192 199 212 234 255 271 287 303 316 324 330 336 339 340 342 344 346 348 350 352 355 357 357 358 358 356 354 350 345 339 335 332 332 333 335 337 340 342 343 343
106 104 104 107 113 118 118 115 114 117 121 124 128 132 135 137 140 146 152 155 158 161 165 168 170 171 171 170 169 168 168 169 171 172 173 174 176 180 183 187 190 190 189 188 190 197 209 229 250 264 275 289 304 315 323 330 335 338 339 341 342 344 345 347 349 353 355 356 357 357 357 357 355 352 347 342 337 335 334 334 336 339 343 345 345
108 108 106 106 112 117 118 116 115 116 118 121 125 129 134 138 142 145 148 151 154 157 160 163 164 164 165 165 166 166 168 169 170 171 173 177 182 185 188 191 192 192 192 194 200 211 226 243 256 267 279 293 306 314 322 328 333 336 338 340 341 342 343 344 346 349 352 355 356 357 357 358 358 356 354 350 345 340 337 335 336 338 343 346 347
109 111 107 105 107 111 113 114 117 120 120 121 124 128 132 138 143 146 149 151 152 154 157 159 160 162 164 165 166 168 169 171 172 175 179 184 188 191 192 193 194 197 201 207 215 226 239 250 261 272 283 294 304 313 320 326 330 333 336 338 339 339 340 342 344 346 349 352 354 356 357 358 359 358 357 355 352 348 344 340 338 339 342 345 348
105 109 108 106 105 105 104 106 113 120 124 126 129 134 137 139 143 147 150 152 153 155 157 161 163 166 167 168 168 170 173 175 179 183 186 189 194 195 195 197 201 206 210 217 227 238 248 258 267 275 284 293 301 309 316 322 326 330 333 335 337 338 339 339 341 343 346 349 351 354 356 358 359 359 359 358 356 354 351 347 342 340 342 345 347
101 103 104 104 104 103 103 105 110 116 122 127 132 137 141 142 144 148 151 153 155 157 160 163 165 167 168 169 172 175 179 182 186 189 191 196 201 201 201 205 212 216 221 230 240 248 256 264 271 277 283 290 297 304 311 317 322 326 329 331 334 336 338 338 338 340 342 345 348 351 354 356 358 359 360 359 358 357 355 353 348 344 341 343 347